Regional Weather Roundup
Issued by NWS

Home | Current Version | Previous Version | Graphics & Text | Print | Product List | Glossary On
Versions: 1 2 3 4 5 6 7 8 9 10 11 12 13 14 15 16 17 18 19 20 21 22 23 24 25 26 27 28 29 30 31 32 33 34 35 36 37 38 39 40 41 42 43 44 45 46 47 48 49 50
000
ASUS45 KCYS 241510
RWRWY

WYOMING REGIONAL WEATHER ROUNDUP
NATIONAL WEATHER SERVICE CHEYENNE WY
900 AM MDT THU JUL 24 2014

NOTE:  "FAIR" INDICATES FEW OR NO CLOUDS BELOW 12,000 FEET
WITH NO SIGNIFICANT WEATHER AND/OR OBSTRUCTIONS TO VISIBILITY.

WYZ001-241600-
YELLOWSTONE NATIONAL PARK

CITY           SKY/WX    TMP DP  RH WIND       PRES   REMARKS
LK YELLOWSTONE   N/A     65  33  30 VRB5      30.25F
W YELLOWSTONE  NOT AVBL

$$
WYZ002>013-054>058-071-098>099-241600-
NORTHERN WYOMING

CITY           SKY/WX    TMP DP  RH WIND       PRES   REMARKS
JACKSON        SUNNY     64  45  48 CALM        N/A
CODY           NOT AVBL
GREYBULL       SUNNY     83  49  30 CALM      29.89S
WORLAND        SUNNY     86  41  20 SW3       29.90F
SHERIDAN       SUNNY     93  46  19 W15G22    29.85R
BUFFALO        SUNNY     90  38  16 SW28G37   29.95R
GILLETTE       MOSUNNY   82  44  26 SW14      29.89F
HULETT         FAIR      82  52  34 MISG      29.90S
NEWCASTLE      FAIR      82  48  30 MISG      29.95S

$$
WYZ014>020-022>026-101>103-241600-
CENTRAL WYOMING

CITY           SKY/WX    TMP DP  RH WIND       PRES   REMARKS
BIG PINEY      MOSUNNY   67  46  47 VRB3      30.23S
PINEDALE       SUNNY     68  45  42 E10       30.25S
DUBOIS         FAIR      73  36  25 W17G25    30.17F
LANDER         MOSUNNY   84  39  20 SW22G38   30.07R
RIVERTON       SUNNY     83  42  23 S15       30.03F
CASPER         SUNNY     84  41  21 SW24G31   30.05F
DOUGLAS        MOSUNNY   88  45  22 VRB3      30.03S

$$
WYZ021-027>030-104>119-241600-
SOUTHERN WYOMING

CITY           SKY/WX    TMP DP  RH WIND       PRES   REMARKS
EVANSTON       MOSUNNY   75  39  27 SW16G25   30.25S
KEMMERER       PTSUNNY   72  36  26 W10       30.27R
FORT BRIDGER   FAIR      76  41  28 S14G20    30.27R
ROCK SPRINGS   PTSUNNY   79  40  24 S21G28    30.25R
DIXON          FAIR      80  43  26 S18G28    30.30R
RAWLINS        MOSUNNY   82  38  20 SW32G43   30.24R
SARATOGA       FAIR      79  39  24 S9        30.30R
LARAMIE        MOSUNNY   77  43  29 SW21G30   30.28S
CHEYENNE       PTSUNNY   83  44  25 W28G35    30.17R
TORRINGTON     MOSUNNY   74  61  63 SE5       29.99F
PINE BLUFFS    FAIR      81  50  34 SW12      30.10S

$$


USA.gov is the U.S. government's official web portal to all federal, state and local government web resources and services.